Overview Statistics Trail Chart Weather Telemetry Raw packets
 

This is the latest recevied weather packets stored in our database for station/object KD7CIH. If no packets are shown the sender has not sent any weather packets the latest 10 day(s).

<< 1 2 3 4 >>
Time Temp. Humidity Pressure Rain* Wind** Luminosity Snow
1788705307 12.78° C 48% 1017 hPa 0 mm - - -
1788705006 12.22° C 49% 1017 hPa 0 mm - - -
1788704705 11.67° C 51% 1017 hPa 0 mm - - -
1788704404 11.67° C 52% 1017 hPa 0 mm - - -
1788704108 11.11° C 52% 1017 hPa 0 mm - - -
1788703806 11.11° C 53% 1016.9 hPa 0 mm - - -
1788703632 11.11° C 53% 1016.9 hPa 0 mm - - -
1788703206 11.11° C 53% 1016.9 hPa 0 mm - - -
1788702929 11.67° C 54% 1016.8 hPa 0 mm - - -
1788702604 11.67° C 52% 1016.8 hPa 0 mm - - -
1788702307 11.11° C 53% 1016.6 hPa 0 mm - - -
1788702009 10.56° C 53% 1016.6 hPa 0 mm - - -
1788701706 10.56° C 54% 1016.8 hPa 0 mm - - -
1788701533 10° C 55% 1016.6 hPa 0 mm - - -
1788701121 10° C 56% 1016.9 hPa 0 mm - - -
1788700805 9.44° C 57% 1016.6 hPa 0 mm - - -
1788700505 9.44° C 57% 1016.5 hPa 0 mm - - -
1788700206 9.44° C 57% 1016.6 hPa 0 mm - - -
1788699907 8.89° C 57% 1016.3 hPa 0 mm - - -
1788699606 8.89° C 58% 1016.4 hPa 0 mm - - -
1788699305 8.33° C 58% 1016.4 hPa 0 mm - - -
1788699005 8.33° C 59% 1016.4 hPa 0 mm - - -
1788698708 8.33° C 59% 1016.3 hPa 0 mm - - -
1788698406 8.33° C 59% 1016.3 hPa 0 mm - - -
1788698234 8.33° C 59% 1016.3 hPa 0 mm - - -

* Rain latest hour (hover to see other rain measurements)
** Current wind speed in m/s (hover to see current wind gust speed)